THOR ABLESTAR R/B, 1508

Orbit data source: Space-Track

THOR ABLESTAR R/B, 1508 is space debris in LEO originally from a launch on Fri, 13 Aug 1965 UTC launched from the Air Force Western Test Range (AFWTR). Debris objects in space refer to the collection of defunct objects orbiting the Earth. Examples of debris include non-operational satellites, rocket bodies, and fragments generated from explosions, collisions, or faulty payload assembly.

Loading next visibility...
Identifier
1508, 1965-065B
Orbit
LEO
Country
Flag of USUS
Related business
Manufacturer
Aerojet
Mission
Spacecraft
Bus & Motor
ABLESTAR, Unknown motor
Mass
~600 kg wet, 600 kg dry
Launch date (UTC)
1965-08-13 (60 years ago)
Launch vehicle
Unknown
Launch site
Air Force Western Test Range (AFWTR)
Object type
Payload
Rocket body
Debris
Shape & HBR
Unknown
Radar Cross Section
Large (>1 m²)

Expand to show TLE details & history
Last TLE update: 11 hours ago

TLE from 11 hours ago
0 THOR ABLESTAR R/B
1 01508U 65065B   25309.94215726  .00000048  00000-0  77087-4 0  9996
2 01508  90.1362 304.7316 0040309 240.6515 135.8763 13.36081610935605
Epoch: 2025-11-05T22:36Z
TLE epoch observation values (Epoch: 2025-11-05T22:36:42.387Z)
Latitude
16.83214°
Longitude
-79.8936°
Altitude
1,147.998 km
Speed
7.27 km/s
True Right ascension
20h 18m 45s
True Declination
16° 44' 31"
Sunlit
Object was in daylight at epoch
Visualization orbit readout
Latitude
Unknown
Longitude
Unknown
Altitude
Unknown
Speed
Unknown
Apparent Right ascension
Unknown
Apparent Declination
Unknown
Sunlit
N/A
Visualization observer readout
Local Sidereal Time
05:29:12
Azimuth
Unknown
Elevation
Unknown
Doppler factor
Unknown
Orbital elements
Apogee altitude
1,151.21 km
Perigee altitude
1,090.753 km
Semi-major axis
7,499.118 km
Eccentricity
0.00403
Inclination
90.1362°
RAAN
304.7316°
Arg. of periapsis
240.6515°
True anomaly
136.19672°
Mean anomaly
135.8763°
Eccentric anomaly
136.03663°
Mean motion
3.34216 °/min
Orbital period
107.71 mins
BSTAR
0.000077087
Loading maneuver chart data...
Computing Atmospheric mass density...
Loading historical data...
Loading historical data...
Loading historical data...
Loading historical data...
Loading historical data...
Loading historical data...
Loading historical data...

Documentation

Showing up to 5 results
|